Location: Montreal
(45.5000°N, 73.5833°W)
Time: 22:03:25
(UTC-04:00)

Envisat - Pass Details

Date: 09 October 2017
Orbit: 764 x 766 km, 98.2° (Epoch: 23 October)

Event Time Altitude Azimuth Distance (km) Brightness Sun altitude
Exits shadow 20:04:27 37° 111° (ESE) 1,181 3.4 -19.2°
Maximum altitude 20:05:50 46° 70° (ENE) 1,021 3.2 -19.5°
Drops below altitude 10° 20:10:41 10° 358° (N) 2,313 5.6 -20.3°
Sets 20:13:04 0° 352° (N) 3,243 6.5 -20.7°
